Time,TemperatureF,DewpointF,PressureIn,WindDirection,WindDirectionDegrees,WindSpeedMPH,WindSpeedGustMPH,Humidity,HourlyPrecipIn,Conditions,Clouds,dailyrainin,SoftwareType,DateUTC
2013-06-18 00:09:00,64.1,63.0,30.05,SE,145,0.0,0.0,97,0.00,,,0.00,weatherlink.com 1.10,2013-06-18 04:09:00,
2013-06-18 00:24:00,64.0,63.0,30.05,SE,145,0.0,0.0,97,0.00,,,0.00,weatherlink.com 1.10,2013-06-18 04:24:00,
2013-06-18 00:39:00,64.0,63.0,30.04,SE,146,0.0,0.0,97,0.00,,,0.00,weatherlink.com 1.10,2013-06-18 04:39:00,
2013-06-18 00:54:00,63.9,63.0,30.03,SE,145,0.0,0.0,97,0.00,,,0.00,weatherlink.com 1.10,2013-06-18 04:54:00,
2013-06-18 01:09:00,63.9,63.0,30.03,SE,145,0.0,0.0,97,0.00,,,0.00,weatherlink.com 1.10,2013-06-18 05:09:00,
2013-06-18 01:24:00,64.0,64.0,30.02,SE,146,0.0,0.0,98,0.00,,,0.00,weatherlink.com 1.10,2013-06-18 05:24:00,
2013-06-18 01:39:00,64.0,64.0,30.02,SE,146,0.0,0.0,98,0.00,,,0.00,weatherlink.com 1.10,2013-06-18 05:39:00,
2013-06-18 01:54:00,64.0,64.0,30.02,SE,146,0.0,0.0,98,0.00,,,0.00,weatherlink.com 1.10,2013-06-18 05:54:00,
2013-06-18 02:09:00,64.1,64.0,30.01,SE,145,0.0,0.0,98,0.00,,,0.00,weatherlink.com 1.10,2013-06-18 06:09:00,
2013-06-18 02:24:00,64.1,64.0,30.01,SE,145,0.0,0.0,98,0.00,,,0.00,weatherlink.com 1.10,2013-06-18 06:24:00,
2013-06-18 02:39:00,63.8,63.0,30.00,SE,145,0.0,0.0,97,0.00,,,0.00,weatherlink.com 1.10,2013-06-18 06:39:00,
2013-06-18 02:54:00,63.7,63.0,30.00,SE,146,0.0,0.0,98,0.00,,,0.00,weatherlink.com 1.10,2013-06-18 06:54:00,
2013-06-18 03:09:00,63.7,63.0,29.99,SE,146,0.0,0.0,98,0.00,,,0.00,weatherlink.com 1.10,2013-06-18 07:09:00,
2013-06-18 03:24:00,63.8,63.0,29.99,SE,146,0.0,0.0,98,0.00,,,0.00,weatherlink.com 1.10,2013-06-18 07:24:00,
2013-06-18 03:39:00,63.7,63.0,29.99,SE,145,0.0,0.0,98,0.00,,,0.00,weatherlink.com 1.10,2013-06-18 07:39:00,
2013-06-18 03:54:00,63.4,63.0,29.98,SE,146,0.0,0.0,97,0.00,,,0.00,weatherlink.com 1.10,2013-06-18 07:54:00,
2013-06-18 04:09:00,63.2,62.0,29.98,SE,145,0.0,0.0,97,0.00,,,0.00,weatherlink.com 1.10,2013-06-18 08:09:00,
2013-06-18 04:24:00,63.0,62.0,29.98,SE,146,0.0,0.0,97,0.00,,,0.00,weatherlink.com 1.10,2013-06-18 08:24:00,
2013-06-18 04:39:00,63.1,63.0,29.98,SE,145,0.0,0.0,98,0.00,,,0.00,weatherlink.com 1.10,2013-06-18 08:39:00,
2013-06-18 04:54:00,63.0,63.0,29.98,SE,131,0.0,0.0,98,0.00,,,0.00,weatherlink.com 1.10,2013-06-18 08:54:00,
2013-06-18 05:09:00,63.0,63.0,29.98,SE,131,0.0,0.0,98,0.00,,,0.00,weatherlink.com 1.10,2013-06-18 09:09:00,
2013-06-18 05:24:00,63.2,63.0,29.99,NW,318,0.0,0.0,98,0.00,,,0.00,weatherlink.com 1.10,2013-06-18 09:24:00,
2013-06-18 05:39:00,63.2,63.0,30.00,NW,317,0.0,0.0,98,0.00,,,0.00,weatherlink.com 1.10,2013-06-18 09:39:00,
2013-06-18 05:54:00,63.0,63.0,30.00,NW,317,0.0,0.0,98,0.00,,,0.00,weatherlink.com 1.10,2013-06-18 09:54:00,
2013-06-18 06:10:00,62.9,62.0,30.00,NW,317,0.0,0.0,98,0.00,,,0.00,weatherlink.com 1.10,2013-06-18 10:10:00,
2013-06-18 06:25:00,62.9,62.0,30.00,NW,317,0.0,0.0,98,0.00,,,0.00,weatherlink.com 1.10,2013-06-18 10:25:00,
2013-06-18 06:40:00,62.8,62.0,30.00,NW,318,0.0,0.0,98,0.00,,,0.00,weatherlink.com 1.10,2013-06-18 10:40:00,
2013-06-18 06:55:00,62.6,62.0,30.00,NW,318,0.0,0.0,98,0.00,,,0.00,weatherlink.com 1.10,2013-06-18 10:55:00,
2013-06-18 07:10:00,62.8,62.0,30.00,NW,318,0.0,0.0,98,0.00,,,0.00,weatherlink.com 1.10,2013-06-18 11:10:00,
2013-06-18 07:25:00,63.0,63.0,30.00,North,352,0.0,0.0,98,0.00,,,0.00,weatherlink.com 1.10,2013-06-18 11:25:00,
2013-06-18 07:40:00,63.2,63.0,30.00,North,352,0.0,0.0,98,0.00,,,0.00,weatherlink.com 1.10,2013-06-18 11:40:00,
2013-06-18 07:55:00,63.4,63.0,30.00,WSW,250,0.0,0.0,98,0.00,,,0.00,weatherlink.com 1.10,2013-06-18 11:55:00,
2013-06-18 08:10:00,63.7,63.0,30.00,NW,312,0.0,0.0,98,0.00,,,0.00,weatherlink.com 1.10,2013-06-18 12:10:00,
2013-06-18 08:25:00,63.7,63.0,30.00,SE,134,0.0,1.0,98,0.00,,,0.00,weatherlink.com 1.10,2013-06-18 12:25:00,
2013-06-18 08:40:00,63.9,63.0,30.01,SE,134,0.0,0.0,98,0.00,,,0.00,weatherlink.com 1.10,2013-06-18 12:40:00,
2013-06-18 08:55:00,64.2,64.0,30.00,East,81,0.0,0.0,98,0.00,,,0.00,weatherlink.com 1.10,2013-06-18 12:55:00,
2013-06-18 09:10:00,64.4,64.0,30.00,SSW,200,0.0,0.0,98,0.00,,,0.00,weatherlink.com 1.10,2013-06-18 13:10:00,
2013-06-18 09:25:00,64.2,64.0,30.01,ESE,107,0.0,2.0,98,0.00,,,0.00,weatherlink.com 1.10,2013-06-18 13:25:00,
2013-06-18 09:40:00,64.0,64.0,30.00,North,5,0.0,5.0,98,0.00,,,0.00,weatherlink.com 1.10,2013-06-18 13:40:00,
2013-06-18 09:55:00,64.1,63.0,30.00,East,96,0.0,3.0,97,0.00,,,0.00,weatherlink.com 1.10,2013-06-18 13:55:00,
2013-06-18 10:10:00,64.6,64.0,30.00,SE,145,0.0,2.0,98,0.00,,,0.00,weatherlink.com 1.10,2013-06-18 14:10:00,
2013-06-18 10:25:00,65.0,64.0,29.99,South,174,0.0,4.0,97,0.00,,,0.00,weatherlink.com 1.10,2013-06-18 14:25:00,
2013-06-18 10:40:00,65.6,65.0,29.98,ENE,57,0.0,2.0,96,0.00,,,0.00,weatherlink.com 1.10,2013-06-18 14:40:00,
2013-06-18 10:55:00,66.9,66.0,29.98,East,95,0.0,3.0,95,0.00,,,0.00,weatherlink.com 1.10,2013-06-18 14:55:00,
2013-06-18 11:10:00,67.6,66.0,29.98,ENE,65,0.0,3.0,94,0.00,,,0.00,weatherlink.com 1.10,2013-06-18 15:10:00,
2013-06-18 11:25:00,67.2,65.0,29.98,NE,35,0.0,6.0,92,0.00,,,0.00,weatherlink.com 1.10,2013-06-18 15:25:00,
2013-06-18 11:40:00,68.4,66.0,29.98,WNW,297,1.0,6.0,92,0.00,,,0.00,weatherlink.com 1.10,2013-06-18 15:40:00,
2013-06-18 11:55:00,67.9,65.0,29.98,WNW,282,0.0,3.0,91,0.00,,,0.00,weatherlink.com 1.10,2013-06-18 15:55:00,
2013-06-18 12:10:00,68.1,66.0,29.97,ENE,58,1.0,3.0,92,0.00,,,0.00,weatherlink.com 1.10,2013-06-18 16:10:00,
2013-06-18 12:25:00,69.4,67.0,29.97,NNE,25,1.0,3.0,92,0.00,,,0.00,weatherlink.com 1.10,2013-06-18 16:25:00,
2013-06-18 12:40:00,70.6,67.0,29.97,WNW,284,2.0,8.0,89,0.00,,,0.00,weatherlink.com 1.10,2013-06-18 16:40:00,
2013-06-18 12:55:00,70.3,66.0,29.96,WSW,256,0.0,5.0,85,0.00,,,0.00,weatherlink.com 1.10,2013-06-18 16:55:00,
2013-06-18 13:10:00,70.5,67.0,29.96,East,101,4.0,6.0,87,0.00,,,0.00,weatherlink.com 1.10,2013-06-18 17:10:00,
2013-06-18 13:25:00,70.1,66.0,29.96,East,80,0.0,8.0,86,0.00,,,0.00,weatherlink.com 1.10,2013-06-18 17:25:00,
2013-06-18 13:40:00,69.4,66.0,29.96,NE,50,6.0,6.0,90,0.00,,,0.00,weatherlink.com 1.10,2013-06-18 17:40:00,
2013-06-18 13:55:00,68.5,66.0,29.95,NE,40,0.0,2.0,91,0.00,,,0.00,weatherlink.com 1.10,2013-06-18 17:55:00,
2013-06-18 14:10:00,67.2,65.0,29.96,North,5,0.0,0.0,93,0.00,,,0.00,weatherlink.com 1.10,2013-06-18 18:10:00,
2013-06-18 14:25:00,67.5,66.0,29.95,NE,41,0.0,2.0,96,0.00,,,0.00,weatherlink.com 1.10,2013-06-18 18:25:00,
2013-06-18 14:40:00,69.8,68.0,29.95,NW,308,1.0,3.0,93,0.00,,,0.00,weatherlink.com 1.10,2013-06-18 18:40:00,
2013-06-18 14:55:00,70.5,68.0,29.95,NW,325,0.0,4.0,90,0.00,,,0.00,weatherlink.com 1.10,2013-06-18 18:55:00,
2013-06-18 15:10:00,70.0,67.0,29.95,South,172,0.0,3.0,89,0.00,,,0.00,weatherlink.com 1.10,2013-06-18 19:10:00,
2013-06-18 15:25:00,68.5,66.0,29.95,SSE,149,0.0,2.0,91,0.00,,,0.00,weatherlink.com 1.10,2013-06-18 19:25:00,
2013-06-18 15:40:00,67.0,65.0,29.95,SSE,163,1.0,3.0,93,0.00,,,0.00,weatherlink.com 1.10,2013-06-18 19:40:00,
2013-06-18 15:55:00,66.5,65.0,29.95,SSE,149,0.0,0.0,95,0.00,,,0.00,weatherlink.com 1.10,2013-06-18 19:55:00,
2013-06-18 16:10:00,66.5,65.0,29.95,SSE,150,0.0,1.0,96,0.00,,,0.00,weatherlink.com 1.10,2013-06-18 20:10:00,
2013-06-18 16:25:00,66.3,65.0,29.95,SSE,149,0.0,0.0,95,0.00,,,0.00,weatherlink.com 1.10,2013-06-18 20:25:00,
2013-06-18 16:40:00,65.7,64.0,29.95,SSE,149,0.0,1.0,95,0.00,,,0.00,weatherlink.com 1.10,2013-06-18 20:40:00,
2013-06-18 16:55:00,65.7,64.0,29.95,East,98,0.0,2.0,95,0.00,,,0.00,weatherlink.com 1.10,2013-06-18 20:55:00,
2013-06-18 17:10:00,66.2,65.0,29.95,East,99,0.0,1.0,95,0.00,,,0.00,weatherlink.com 1.10,2013-06-18 21:10:00,
2013-06-18 17:25:00,66.8,66.0,29.95,East,98,0.0,0.0,96,0.00,,,0.00,weatherlink.com 1.10,2013-06-18 21:25:00,
2013-06-18 17:40:00,66.6,65.0,29.94,WNW,288,0.0,1.0,93,0.00,,,0.00,weatherlink.com 1.10,2013-06-18 21:40:00,
2013-06-18 17:55:00,66.5,65.0,29.94,SW,217,0.0,2.0,94,0.00,,,0.00,weatherlink.com 1.10,2013-06-18 21:55:00,
2013-06-18 18:10:00,66.3,65.0,29.93,South,170,0.0,1.0,94,0.00,,,0.00,weatherlink.com 1.10,2013-06-18 22:10:00,
2013-06-18 18:25:00,66.4,65.0,29.93,SE,138,0.0,3.0,95,0.00,,,0.00,weatherlink.com 1.10,2013-06-18 22:25:00,
2013-06-18 18:40:00,66.5,65.0,29.93,SE,138,0.0,1.0,95,0.00,,,0.00,weatherlink.com 1.10,2013-06-18 22:40:00,
2013-06-18 18:55:00,66.3,65.0,29.94,SE,138,0.0,0.0,95,0.00,,,0.00,weatherlink.com 1.10,2013-06-18 22:55:00,
2013-06-18 19:10:00,65.7,64.0,29.94,SSE,158,1.0,2.0,94,0.00,,,0.00,weatherlink.com 1.10,2013-06-18 23:10:00,
2013-06-18 19:25:00,65.7,64.0,29.94,NNE,21,0.0,4.0,93,0.00,,,0.00,weatherlink.com 1.10,2013-06-18 23:25:00,
2013-06-18 19:40:00,65.6,64.0,29.95,West,264,1.0,3.0,93,0.00,,,0.00,weatherlink.com 1.10,2013-06-18 23:40:00,
2013-06-18 19:55:00,65.0,63.0,29.95,SSE,152,1.0,3.0,94,0.00,,,0.00,weatherlink.com 1.10,2013-06-18 23:55:00,
2013-06-18 20:10:00,64.5,63.0,29.95,SSE,150,1.0,2.0,95,0.00,,,0.00,weatherlink.com 1.10,2013-06-19 00:10:00,
2013-06-18 20:25:00,63.9,63.0,29.95,SSE,153,0.0,2.0,95,0.00,,,0.00,weatherlink.com 1.10,2013-06-19 00:25:00,
2013-06-18 20:40:00,63.5,62.0,29.96,SSE,153,2.0,2.0,95,0.00,,,0.00,weatherlink.com 1.10,2013-06-19 00:40:00,
2013-06-18 20:55:00,63.3,62.0,29.96,SSE,155,1.0,2.0,96,0.00,,,0.00,weatherlink.com 1.10,2013-06-19 00:55:00,
2013-06-18 21:11:00,62.9,62.0,29.97,SSE,154,0.0,2.0,96,0.00,,,0.00,weatherlink.com 1.10,2013-06-19 01:11:00,
2013-06-18 21:26:00,62.8,62.0,29.98,SSE,152,1.0,2.0,96,0.00,,,0.00,weatherlink.com 1.10,2013-06-19 01:26:00,
2013-06-18 21:41:00,63.0,62.0,29.98,SSE,152,1.0,1.0,97,0.00,,,0.00,weatherlink.com 1.10,2013-06-19 01:41:00,
2013-06-18 21:56:00,63.3,63.0,29.99,SSE,152,0.0,0.0,97,0.00,,,0.00,weatherlink.com 1.10,2013-06-19 01:56:00,
2013-06-18 22:11:00,63.5,63.0,30.00,SSE,152,0.0,0.0,97,0.00,,,0.00,weatherlink.com 1.10,2013-06-19 02:11:00,
2013-06-18 22:26:00,63.5,63.0,30.00,SSE,152,0.0,0.0,97,0.00,,,0.00,weatherlink.com 1.10,2013-06-19 02:26:00,
2013-06-18 22:41:00,63.7,63.0,30.00,SSE,153,0.0,0.0,97,0.00,,,0.00,weatherlink.com 1.10,2013-06-19 02:41:00,
2013-06-18 22:56:00,63.8,63.0,30.01,South,180,0.0,0.0,97,0.00,,,0.00,weatherlink.com 1.10,2013-06-19 02:56:00,
2013-06-18 23:11:00,63.8,63.0,30.02,South,184,0.0,0.0,97,0.00,,,0.00,weatherlink.com 1.10,2013-06-19 03:11:00,
2013-06-18 23:26:00,63.6,63.0,30.03,South,184,0.0,0.0,97,0.00,,,0.00,weatherlink.com 1.10,2013-06-19 03:26:00,
2013-06-18 23:41:00,62.6,61.0,30.03,SSE,148,0.0,0.0,95,0.00,,,0.00,weatherlink.com 1.10,2013-06-19 03:41:00,
2013-06-18 23:56:00,61.6,60.0,30.03,SSE,148,0.0,0.0,95,0.00,,,0.00,weatherlink.com 1.10,2013-06-19 03:56:00,